Location: Paddlesworth
(51.1000°N, 1.1333°E)
Time: 06:18:38
(UTC+00:00)

ALOS 2 - Pass Details

Date: 11 May 2021
Orbit: 630 x 632 km, 97.9° (Epoch: 20 June)

Event Time Altitude Azimuth Distance (km) Brightness Sun altitude
Exits shadow 22:41:29 32° 117° (ESE) 1,082 3.4 -19.1°
Maximum altitude 22:42:59 46° 69° (ENE) 861 3.3 -19.1°
Drops below altitude 10° 22:47:11 10° 356° (N) 2,027 6.4 -19.3°
Sets 22:49:28 0° 351° (N) 2,940 7.6 -19.4°
